Simultaneous Nadir Overpasses (SNOs) Predictions

Prediction of SNOs between METOP-A and NOAA-19 Satellite Orbit:

Table of predicted SNOs for the next 14.0 days since TLE Epoch: 6/10/2015
Index Date (METOP-A) Time (METOP-A) Lat,Lon (METOP-A) SZA (METOP-A ) Date (NOAA-19) Time (NOAA-19) Lat,Lon (NOAA-19) SZA (NOAA-19 ) Distance(km) Time Diff (sec)
1 06/16/2015 12:13:23 -75.45, 174.86 127.96 06/16/2015 12:12:14 -75.48, 172.45 127.89 67.44 69
2 06/16/2015 13:04:11 75.07, -18.93 51.67 06/16/2015 13:03:12 75.04, -18.96 51.65 3.42 59
3 06/16/2015 13:54:53 -75.05, 148.33 128.36 06/16/2015 13:54:07 -75.04, 148.33 128.37 1.44 46
4 06/16/2015 14:45:34 75.00, -44.47 51.60 06/16/2015 14:45:14 75.01, -44.38 51.61 3.02 20
5 06/16/2015 15:36:15 -75.03, 122.93 128.38 06/16/2015 15:36:09 -75.01, 122.91 128.40 2.27 6
6
